Pian Rosa, Italy

3:02 AM CEST on April 28, 2017 (GMT +0200)
Pian Rosa

Weather History for LIMH - September, 2014

Change the Weather History Date:

Wednesday, September 3, 2014

  Actual Average Record
Temperature  
Mean Temperature 34 °F -  
Max Temperature 41 °F 34 °F 46 °F (2005)
Min Temperature 27 °F 26 °F 24 °F (1999)
Degree Days  
Heating Degree Days 31    
Moisture  
Dew Point 19 °F    
Average Humidity 50    
Maximum Humidity 87    
Minimum Humidity 14    
Precipitation  
Precipitation 0.00 in - - ()
Sea Level Pressure  
Sea Level Pressure 30.27 in    
Wind  
Wind Speed 11 mph ()    
Max Wind Speed 23 mph    
Max Gust Speed -    
Visibility 3.5 miles    
Events Fog    
Averages and records for this station are not official NWS values.
T = Trace of Precipitation, MM = Missing Value Source: Averaged Metar Reports

Daily Weather History Graph

Daily Weather History Graph

Search for Another Location

Airport or City:

Trip Planner

Search our weather history database for the weather conditions in past years. The results will help you decide how hot, cold, wet, or windy it might be!

Date:

Astronomy

Sep. 03, 2014 Rise Set
Actual Time 6:52 AM CEST 8:04 PM CEST
Civil Twilight 6:21 AM CEST 8:34 PM CEST
Nautical Twilight 5:44 AM CEST 9:11 PM CEST
Astronomical Twilight 5:05 AM CEST 9:50 PM CEST
Moon 3:40 PM CEST (9/3) 12:22 AM CEST (9/3)
Length of Visible Light 14h 13m
Length of Day
13h 11m
First Quarter, 61% of the Moon is Illuminated
Sep 3
First Quarter
Sep 9
Full
Sep 16
Last Quarter
Sep 24
New
Oct 1
First Quarter

Hourly Weather History & Observations

Time (CEST) Temp. Dew Point Humidity Pressure Visibility Wind Dir Wind Speed Gust Speed Precip Events Conditions
12:00 AM 27 °F 23 °F 77%  in 6 mi ENE 17.3 mph - -  
1:00 AM 27 °F 20 °F 64%  in 6 mi ENE 13.8 mph - -  
1:55 AM 28.4 °F 10.4 °F 47% 30.24 in - North - - N/A   Clear
2:00 AM 28 °F 10 °F 33%  in 6 mi ENE 23.0 mph - -  
2:55 AM 30.2 °F 3.2 °F 32% 30.21 in - North - - N/A   Clear
3:00 AM 31 °F 3 °F 17%  in 6 mi ENE 12.7 mph - -  
3:55 AM 30.2 °F 1.4 °F 29% 30.21 in - North - - N/A   Clear
4:00 AM 31 °F 2 °F 16%  in 6 mi ESE 20.7 mph - -  
4:55 AM 30.2 °F 5.0 °F 34% 30.21 in - North - - N/A   Clear
5:00 AM 30 °F 4 °F 20%  in 6 mi East 18.4 mph - -  
5:55 AM 30.2 °F 6.8 °F 37% 30.21 in - North - - N/A   Clear
6:00 AM 30 °F 7 °F 23%  in 6 mi ENE 11.5 mph - -  
6:55 AM 30.2 °F 6.8 °F 37% 30.21 in - North - - N/A   Clear
7:00 AM 30 °F 7 °F 23%  in 19 mi ENE 17.3 mph - -  
7:55 AM 32.0 °F 14.0 °F 48% 30.21 in - North - - N/A   Clear
8:00 AM 31 °F 13 °F 34%  in 31 mi ENE 13.8 mph - -  
8:55 AM 32.0 °F 10.4 °F 41% 30.24 in - North - - N/A   Partly Cloudy
9:00 AM 32 °F 10 °F 26%  in 47 mi West 11.5 mph - -   Scattered Clouds
9:55 AM 35.6 °F 5.0 °F 28% 30.24 in - North - - N/A   Clear
10:00 AM 36 °F 5 °F 15%  in 47 mi West 13.8 mph - -  
10:55 AM 37.4 °F 5.0 °F 26% 30.24 in - North - - N/A   Clear
11:00 AM 37 °F 6 °F 14%  in 44 mi SSW 4.6 mph - -   Clear
11:55 AM 39.2 °F 12.2 °F 33% 30.24 in - North - - N/A   Partly Cloudy
12:00 PM 40 °F 12 °F 19%  in 9 mi SSW 5.8 mph - -   Scattered Clouds
12:55 PM 39.2 °F 26.6 °F 61% 30.27 in - North - - N/A Fog Fog
1:00 PM 39 °F 27 °F 51%  in 0 mi NE 5.8 mph - - Fog Heavy Fog
1:55 PM 39.2 °F 28.4 °F 65% 30.27 in - North - - N/A Fog Fog
2:00 PM 40 °F 28 °F 52%  in 0 mi WSW 5.8 mph - -  
3:00 PM 41 °F 27 °F 45%  in 0 mi WSW 4.6 mph - - Fog Heavy Fog
3:55 PM 39.2 °F 30.2 °F 70% 30.30 in - North - - N/A Fog Fog
4:00 PM 40 °F 31 °F 59%  in 0 mi WSW 9.2 mph - - Fog Heavy Fog
4:55 PM 37.4 °F 32.0 °F 81% 30.30 in - North - - N/A Fog Fog
5:00 PM 38 °F 32 °F 71%  in 0 mi WSW 13.8 mph - - Fog Heavy Fog
5:55 PM 37.4 °F 32.0 °F 81% 30.30 in - North - - N/A Fog Fog
6:00 PM 37 °F 32 °F 75%  in 0 mi SW 4.6 mph - - Fog Heavy Fog
6:55 PM 37.4 °F 30.2 °F 75% 30.30 in - North - - N/A Fog Fog
7:00 PM 37 °F 30 °F 68%  in 0 mi WSW 2.3 mph - - Fog Heavy Fog
7:55 PM 37.4 °F 30.2 °F 75% 30.30 in - North - - N/A Fog Fog
8:00 PM 37 °F 31 °F 69%  in 0 mi WSW 2.3 mph - -  
8:55 PM 35.6 °F 28.4 °F 75% 30.33 in - North - - N/A Fog Fog
9:00 PM 36 °F 29 °F 66%  in 0 mi Calm Calm - - Fog Heavy Fog
9:55 PM 35.6 °F 32.0 °F 87% 30.33 in - North - - N/A Fog Fog
10:00 PM 36 °F 31 °F 77%  in 0 mi West 4.6 mph - - Fog Heavy Fog
10:55 PM 33.8 °F 28.4 °F 81% 30.36 in - North - - N/A Fog Fog
11:00 PM 34 °F 29 °F 76%  in 0 mi WSW 4.6 mph - - Fog Heavy Fog
11:55 PM 33.8 °F 30.2 °F 87% 30.36 in - North - - N/A Fog Fog